Location: San Antonio de Areco
(34.2500°S, 59.4670°W)
Time: 22:50:04
(UTC-03:00)

ISS - Visible Passes

Search period start: 31 August 2016 00:00
Search period end: 10 September 2016 00:00
Orbit: 402 x 406 km, 51.6° (Epoch: 31 August)

Date Brightness Start Highest point End Pass type
(mag) Time Alt. Az. Time Alt. Az. Time Alt. Az.
31 Aug -1.1 20:02:31 10° W 20:05:11 22° SW 20:07:07 14° S visible
01 Sep -2.1 19:09:29 10° WNW 19:12:37 40° SW 19:15:47 10° SSE visible
02 Sep -0.4 19:55:44 10° SW 19:57:03 12° SSW 19:58:22 10° S visible
